[[{"header":{"parameterUnit":"m.s-1","parameterCategory":1,"la1":30.2991,"la2":30.254,"lo1":-89.0895,"lo2":-89.0444,"dy":0.0017,"dx":0.0017,"nx":28,"ny":28,"refTime":"2025-08-08T09:00:00:Z","depth":0,"parameterNumber":2,"parameterNumberName":"U-component_of_WINDS"},"data":[0,0,0,0,0,0,0,0,0,0,0,0,0,0,0,0,0,0,0,0,0,0,0,0,0,0,0,0,0,0,0,0,0,0,0,0,0,0,0,0,0,0,0,0,0,0,0,0,0,0,0,0,0,0,0,0,0,0,-2.0377,-2.0378,0,-2.0409,-2.0409,-2.0409,-2.0315,-2.0312,-2.0309,-2.0307,-2.0342,-2.0346,-2.0349,0,0,0,0,0,0,0,0,0,0,0,0,0,-2.0238,-2.0241,-2.0377,-2.0378,-2.0378,-2.0409,-2.0409,-2.0409,-2.0316,-2.0312,-2.0309,-2.0305,-2.0341,-2.0345,-2.0349,0,0,0,0,0,0,0,0,0,0,0,0,0,-2.0287,-2.0242,-2.0377,-2.0335,-2.0331,-2.0409,-2.0409,-2.041,-2.0317,-2.0312,-2.0308,-2.0304,-2.0339,-2.0345,-2.035,-2.0471,0,0,-2.0367,-2.0369,0,0,0,0,0,0,0,0,-2.0284,-2.0292,-2.0341,-2.0338,-2.0334,-2.0353,-2.0373,-2.043,-2.0318,-2.0322,-2.0307,-2.0302,-2.035,-2.0354,-2.0369,-2.0472,-2.0474,-2.0367,-2.037,-2.0373,-2.0374,0,0,0,0,0,0,0,-2.0281,-2.029,-2.039,-2.0341,-2.0338,-2.0315,-2.0317,-2.0383,-2.036,-2.0322,-2.0315,-2.032,-2.0347,-2.0364,-2.037,-2.0474,-2.0367,-2.0372,-2.0375,-2.0377,-2.0676,-2.068,0,0,0,0,0,0,-2.0283,-2.0288,-2.0389,-2.0391,-2.0298,-2.0321,-2.0323,-2.0352,-2.0359,-2.0356,-2.0323,-2.0315,-2.0357,-2.0363,-2.037,-2.0511,-2.0373,-2.0378,-2.0381,-2.0671,-2.0677,-2.0682,0,0,0,0,0,0,-2.028,-2.0292,-2.0387,-2.0337,-2.0348,-2.0328,-2.0361,-2.0355,-2.0372,-2.036,-2.0356,-2.0345,-2.0354,-2.0363,-2.0446,-2.0511,-2.038,-2.0385,-2.0666,-2.0673,-2.0679,-2.0794,0,0,0,0,0,0,-2.0276,-2.0292,-2.0337,-2.0339,-2.0351,-2.0462,-2.0365,-2.0358,-2.0381,-2.0371,-2.038,-2.0377,-2.0351,-2.0438,-2.0451,-2.0516,-2.039,-2.066,-2.0669,-2.0677,-2.0784,-2.0804,-2.082,0,0,0,0,0,-2.0272,-2.0369,-2.034,-2.0353,-2.0407,-2.0466,-2.0473,-2.044,-2.0387,-2.0432,-2.0425,-2.0377,-2.0502,-2.0447,-2.0461,-2.0529,-2.0656,-2.0666,-2.0677,-2.0776,-2.08,-2.082,0,0,0,0,0,0,-2.0377,-2.0369,-2.0336,-2.0437,-2.0453,-2.045,-2.0506,-2.0467,-2.0499,-2.0488,-2.0447,-2.045,-2.0541,-2.0543,-2.0483,-2.0645,-2.0569,-2.0583,-2.064,-2.0663,-2.0681,-2.0678,-2.0394,0,0,0,0,0,-2.0412,-2.046,-2.045,-2.054,-2.0549,-2.0527,-2.0552,-2.0525,-2.054,-2.0546,-2.0545,-2.0562,-2.0605,-2.0634,-2.0673,-2.0784,-2.0784,-2.0837,-2.0855,-2.087,-2.0883,-2.094,-2.0964,-2.0716,-2.0716,-2.0716,0,0,-2.0485,-2.0486,-2.0519,-2.0561,-2.057,-2.0621,-2.0533,-2.0591,-2.0629,-2.0556,-2.0633,-2.0633,-2.0649,-2.0746,-2.0789,-2.0751,-2.0951,-2.0884,-2.0896,-2.09,-2.0954,-2.0977,-2.0998,-2.0724,-2.0722,-2.0721,0,0,-2.0643,-2.0649,-2.0724,-2.0734,-2.0748,-2.0732,-2.075,-2.0753,-2.075,-2.0827,-2.0773,-2.0817,-2.0892,-2.0905,-2.0922,-2.1084,-2.1041,-2.1098,-2.1194,-2.1251,-2.127,-2.1287,-2.1344,-2.1365,-2.1111,-2.1111,-2.1111,0,-2.0732,-2.0805,-2.0768,-2.0829,-2.0849,-2.0783,-2.0859,-2.0871,-2.0898,-2.0914,-2.0871,-2.0962,-2.0969,-2.1068,-2.1107,-2.1123,-2.1142,-2.1097,-2.127,-2.1287,-2.1302,-2.1356,-2.1378,-2.1118,-2.1117,-2.1116,-2.1116,0,-2.0913,-2.0966,-2.1025,-2.105,-2.1077,-2.1146,-2.1118,-2.115,-2.1121,-2.111,-2.1189,-2.1194,-2.1232,-2.1254,-2.1227,-2.1349,-2.1325,-2.1277,-2.12,-2.1333,-2.1383,-2.1404,-2.1127,-2.1125,-2.1123,-2.1121,0,0,-2.114,-2.1142,-2.1165,-2.1175,-2.1185,-2.1225,-2.1291,-2.1327,-2.1354,-2.1375,-2.1429,-2.1493,-2.1448,-2.1467,-2.1441,-2.1491,-2.1618,-2.1436,-2.1436,-2.1469,-2.1752,-2.1788,-2.1812,-2.1589,-2.1593,-2.1596,-2.175,0,-2.1295,-2.1405,-2.1372,-2.1484,-2.1531,-2.1469,-2.1526,-2.1539,-2.153,-2.1569,-2.1559,-2.1605,-2.1543,-2.1554,-2.16,-2.1593,-2.1674,-2.1581,-2.1639,-2.1641,-2.1636,-2.1838,-2.1877,-2.2022,-2.177,-2.1773,-2.1775,0,-2.1491,-2.1517,-2.1633,-2.1634,-2.1652,-2.1704,-2.1734,-2.1772,-2.1785,-2.1775,-2.1796,-2.1759,-2.1823,-2.1746,-2.1834,-2.1772,-2.1793,-2.1793,-2.1798,-2.1802,-2.1716,-2.1848,-2.2068,-2.2089,-2.1806,-2.1803,-2.1801,0,-2.1643,-2.1708,-2.1785,-2.1796,-2.1799,-2.1837,-2.184,-2.1849,-2.1872,-2.1899,-2.1913,-2.1948,-2.1967,-2.1994,-2.1968,-2.1914,-2.206,-2.198,-2.2053,-2.2054,-2.2086,-2.2085,-2.2313,-2.2102,-2.2101,-2.2101,-2.21,0,-2.1819,-2.1892,-2.1853,-2.1901,-2.198,-2.1942,-2.2023,-2.2019,-2.2027,-2.2073,-2.2022,-2.2067,-2.2029,-2.207,-2.205,-2.2125,-2.2135,-2.2128,-2.2122,-2.2133,-2.2134,-2.2146,-2.2135,-2.2106,-2.2105,-2.2104,-2.2103,0,-2.2003,-2.198,-2.2059,-2.2056,-2.2056,-2.2115,-2.2112,-2.2156,-2.2143,-2.2202,-2.2214,-2.2194,-2.2239,-2.2215,-2.2263,-2.225,-2.2347,-2.2327,-2.2342,-2.2337,-2.241,-2.2404,-2.2654,-2.2685,-2.2455,-2.2457,-2.2459,0,-2.2117,-2.2171,-2.2173,-2.2199,-2.2206,-2.2249,-2.2272,-2.2237,-2.2263,-2.2281,-2.2323,-2.2364,-2.2395,-2.2471,-2.2461,-2.2497,-2.2478,-2.2563,-2.2483,-2.2492,-2.2478,-2.2475,-2.248,-2.2579,-2.2582,-2.2584,-2.2586,0,-2.2321,-2.2307,-2.2341,-2.2372,-2.2401,-2.2424,-2.2442,-2.2467,-2.2432,-2.2464,-2.2509,-2.2533,-2.2581,-2.2622,-2.2653,-2.2657,-2.2616,-2.2611,-2.263,-2.2641,-2.2647,-2.2644,-2.2386,-2.2606,-2.2604,-2.2602,-2.2601,-2.26,-2.2473,-2.2518,-2.2525,-2.2566,-2.2576,-2.2594,-2.2634,-2.2626,-2.2663,-2.2698,-2.2675,-2.2728,-2.2739,-2.2776,-2.2785,-2.2827,-2.2793,-2.282,-2.2827,-2.2834,-2.2843,-2.2641,-2.2833,-2.2832,-2.2831,-2.2831,-2.283,0,-2.2674,-2.2675,-2.2713,-2.2739,-2.2771,-2.2728,-2.2746,-2.2776,-2.2823,-2.2836,-2.2867,-2.2919,-2.2958,-2.2951,-2.2987,-2.3022,-2.3004,-2.3032,-2.3029,-2.3031,-2.2872,-2.2852,-2.3046,-2.3046,-2.3046,-2.3046,-2.3046,-2.3046,-2.2782,-2.2856,-2.2842,-2.292,-2.292,-2.2971,-2.2985,-2.3002,-2.3012,-2.3072,-2.3104,-2.3098,-2.3103,-2.3139,-2.3173,-2.317,-2.3186,-2.3221,-2.3211,-2.3063,-2.3042,-2.3022,-2.3003,-2.3225,-2.3225,-2.3366,-2.3367,-2.3368]},{"header":{"parameterUnit":"m.s-1","parameterCategory":1,"la1":30.2991,"la2":30.254,"lo1":-89.0895,"lo2":-89.0444,"dy":0.0017,"dx":0.0017,"nx":28,"ny":28,"refTime":"2025-08-08T09:00:00:Z","depth":0,"parameterNumber":3,"parameterNumberName":"V-component_of_WINDS"},"data":[0,0,0,0,0,0,0,0,0,0,0,0,0,0,0,0,0,0,0,0,0,0,0,0,0,0,0,0,0,0,0,0,0,0,0,0,0,0,0,0,0,0,0,0,0,0,0,0,0,0,0,0,0,0,0,0,0,0,-0.7096,-0.7096,0,-0.7115,-0.7115,-0.7115,-0.7125,-0.7125,-0.7125,-0.7125,-0.7145,-0.7146,-0.7146,0,0,0,0,0,0,0,0,0,0,0,0,0,-0.7067,-0.7068,-0.7096,-0.7096,-0.7096,-0.7115,-0.7115,-0.7116,-0.7125,-0.7125,-0.7125,-0.7125,-0.7145,-0.7146,-0.7146,0,0,0,0,0,0,0,0,0,0,0,0,0,-0.7082,-0.7068,-0.7096,-0.7103,-0.7104,-0.7115,-0.7115,-0.7116,-0.7125,-0.7125,-0.7125,-0.7125,-0.7145,-0.7145,-0.7146,-0.7151,0,0,-0.7149,-0.7149,0,0,0,0,0,0,0,0,-0.7081,-0.7083,-0.7102,-0.7103,-0.7104,-0.7118,-0.7112,-0.7127,-0.7125,-0.7117,-0.7125,-0.7125,-0.7136,-0.7137,-0.7141,-0.7152,-0.7153,-0.7149,-0.7149,-0.715,-0.715,0,0,0,0,0,0,0,-0.708,-0.7083,-0.7103,-0.7102,-0.7103,-0.7106,-0.7108,-0.7115,-0.7126,-0.7118,-0.7119,-0.7121,-0.7136,-0.714,-0.7142,-0.7153,-0.7149,-0.7149,-0.715,-0.715,-0.7169,-0.7169,0,0,0,0,0,0,-0.7078,-0.7082,-0.7103,-0.7104,-0.7092,-0.7106,-0.7109,-0.7113,-0.7126,-0.7128,-0.7121,-0.7121,-0.7139,-0.7141,-0.7142,-0.7149,-0.715,-0.715,-0.7151,-0.7169,-0.7169,-0.7169,0,0,0,0,0,0,-0.7077,-0.708,-0.7102,-0.7093,-0.7096,-0.7107,-0.7112,-0.7114,-0.7117,-0.7128,-0.713,-0.7123,-0.7139,-0.7141,-0.7149,-0.715,-0.7151,-0.7151,-0.7169,-0.7169,-0.7169,-0.7162,0,0,0,0,0,0,-0.7077,-0.708,-0.7081,-0.7093,-0.7096,-0.7108,-0.7112,-0.7114,-0.7119,-0.712,-0.7131,-0.7133,-0.7139,-0.7148,-0.715,-0.7151,-0.7152,-0.7169,-0.7169,-0.7169,-0.7162,-0.7162,-0.7162,0,0,0,0,0,-0.7076,-0.7079,-0.7081,-0.7084,-0.7099,-0.7108,-0.711,-0.7117,-0.7119,-0.7121,-0.7128,-0.7132,-0.7149,-0.7148,-0.7151,-0.7152,-0.7169,-0.7169,-0.7169,-0.7162,-0.7162,-0.7162,0,0,0,0,0,0,-0.7067,-0.708,-0.7083,-0.709,-0.7098,-0.711,-0.7112,-0.7117,-0.7124,-0.7124,-0.7133,-0.7136,-0.7143,-0.7148,-0.7147,-0.7158,-0.716,-0.716,-0.7154,-0.7153,-0.7153,-0.7152,-0.7153,0,0,0,0,0,-0.7066,-0.7072,-0.7083,-0.7088,-0.7092,-0.7101,-0.7106,-0.7111,-0.7119,-0.7122,-0.713,-0.7138,-0.7145,-0.715,-0.7157,-0.7163,-0.7166,-0.7165,-0.7165,-0.7165,-0.7165,-0.7169,-0.717,-0.7169,-0.7169,-0.7169,0,0,-0.7063,-0.7071,-0.7075,-0.7087,-0.7093,-0.7099,-0.7104,-0.711,-0.7115,-0.7123,-0.7131,-0.7137,-0.7146,-0.7153,-0.7157,-0.7158,-0.7166,-0.7165,-0.7164,-0.7165,-0.717,-0.717,-0.717,-0.7169,-0.7169,-0.7169,0,0,-0.7062,-0.7069,-0.7074,-0.708,-0.709,-0.7097,-0.7098,-0.7109,-0.7113,-0.7121,-0.7127,-0.7133,-0.7145,-0.7152,-0.7157,-0.7159,-0.7163,-0.7161,-0.7159,-0.7163,-0.7163,-0.7163,-0.7164,-0.7165,-0.7161,-0.7161,-0.7161,0,-0.7058,-0.7068,-0.7076,-0.7082,-0.7087,-0.7095,-0.71,-0.7106,-0.7118,-0.7121,-0.7122,-0.7138,-0.7145,-0.7154,-0.7155,-0.7158,-0.716,-0.716,-0.7163,-0.7163,-0.7163,-0.7164,-0.7164,-0.7161,-0.7161,-0.7161,-0.7161,0,-0.7062,-0.7069,-0.7072,-0.7083,-0.7089,-0.7094,-0.7103,-0.7108,-0.7113,-0.7119,-0.7127,-0.7136,-0.7145,-0.7148,-0.7152,-0.7158,-0.7158,-0.7161,-0.7163,-0.7163,-0.7164,-0.7164,-0.7161,-0.7161,-0.7161,-0.7161,0,0,-0.7056,-0.7072,-0.7073,-0.7078,-0.709,-0.7095,-0.7101,-0.7111,-0.7115,-0.7122,-0.7128,-0.7138,-0.7141,-0.7147,-0.7152,-0.7156,-0.7158,-0.7158,-0.7159,-0.7158,-0.7164,-0.7162,-0.7163,-0.7161,-0.7161,-0.7161,-0.7164,0,-0.7057,-0.7068,-0.7076,-0.7084,-0.7091,-0.7098,-0.7104,-0.7112,-0.7118,-0.7124,-0.7131,-0.7139,-0.7142,-0.7145,-0.7149,-0.7156,-0.7159,-0.7156,-0.7166,-0.7166,-0.7164,-0.7163,-0.7161,-0.7163,-0.7164,-0.7164,-0.7164,0,-0.706,-0.7067,-0.7076,-0.7088,-0.7091,-0.7095,-0.7105,-0.7111,-0.712,-0.7124,-0.7131,-0.7136,-0.7144,-0.7145,-0.7155,-0.7153,-0.7158,-0.7162,-0.7163,-0.7164,-0.7165,-0.7165,-0.7164,-0.7165,-0.7165,-0.7165,-0.7165,0,-0.7054,-0.7067,-0.7074,-0.7079,-0.7092,-0.7095,-0.7101,-0.711,-0.7115,-0.7123,-0.7127,-0.7136,-0.7141,-0.7147,-0.7156,-0.7156,-0.7165,-0.7167,-0.7169,-0.7169,-0.7171,-0.7171,-0.7171,-0.7173,-0.7173,-0.7173,-0.7173,0,-0.7055,-0.706,-0.7072,-0.7077,-0.7083,-0.7092,-0.7098,-0.7104,-0.7112,-0.7118,-0.7126,-0.7131,-0.7141,-0.7148,-0.7155,-0.7163,-0.7165,-0.7169,-0.717,-0.7168,-0.7168,-0.7171,-0.7171,-0.7174,-0.7173,-0.7173,-0.7173,0,-0.705,-0.7058,-0.7067,-0.7079,-0.7082,-0.7086,-0.7096,-0.7101,-0.7108,-0.7115,-0.7118,-0.7128,-0.7137,-0.7146,-0.7157,-0.7162,-0.7169,-0.7172,-0.7166,-0.7167,-0.7169,-0.7169,-0.7172,-0.7173,-0.7174,-0.7174,-0.7174,0,-0.705,-0.7054,-0.7066,-0.7071,-0.7076,-0.7084,-0.7089,-0.7098,-0.7103,-0.7114,-0.7118,-0.7127,-0.7135,-0.7148,-0.7157,-0.7166,-0.7169,-0.7169,-0.717,-0.7168,-0.7169,-0.7169,-0.717,-0.7169,-0.7169,-0.7169,-0.7169,0,-0.7048,-0.7052,-0.706,-0.7069,-0.7075,-0.7082,-0.709,-0.7094,-0.7104,-0.711,-0.7119,-0.7125,-0.7137,-0.7146,-0.7156,-0.7162,-0.7168,-0.7169,-0.717,-0.7167,-0.7164,-0.7166,-0.7166,-0.7168,-0.7168,-0.7169,-0.7169,-0.7169,-0.7046,-0.705,-0.706,-0.7068,-0.7075,-0.7082,-0.7087,-0.7095,-0.7102,-0.7112,-0.7117,-0.7126,-0.7136,-0.715,-0.7157,-0.7164,-0.7165,-0.7167,-0.7167,-0.7167,-0.7167,-0.7163,-0.7166,-0.7166,-0.7166,-0.7166,-0.7166,0,-0.7045,-0.7052,-0.7059,-0.707,-0.7076,-0.708,-0.7089,-0.7095,-0.7103,-0.7111,-0.7119,-0.7129,-0.7138,-0.7148,-0.7158,-0.7162,-0.7165,-0.7164,-0.7164,-0.7166,-0.7165,-0.7163,-0.7162,-0.7162,-0.7162,-0.7162,-0.7162,-0.7162,-0.7045,-0.7053,-0.7058,-0.707,-0.7076,-0.7085,-0.709,-0.7097,-0.7104,-0.7115,-0.7122,-0.7129,-0.7138,-0.7149,-0.7157,-0.716,-0.7163,-0.7162,-0.7166,-0.7165,-0.7166,-0.7166,-0.7164,-0.7163,-0.7163,-0.7166,-0.7166,-0.7166]}]]